This is the latest recevied weather packets stored in our database for station/object XE2AD-5. If no packets are shown the sender has not sent any weather packets the latest 10 day(s).
| Time | Temp. | Humidity | Pressure | Rain* | Wind** | Luminosity | Snow |
|---|---|---|---|---|---|---|---|
| 1778088658 | 26.67° C | 19% | 808.2 hPa | - | - | - | - |
| 1778085358 | 26.11° C | 20% | 808.5 hPa | - | - | - | - |
| 1778082058 | 26.11° C | 20% | 808.7 hPa | - | - | - | - |
| 1778078758 | 26.11° C | 20% | 808.8 hPa | - | - | - | - |
| 1778075458 | 26.67° C | 19% | 808.4 hPa | - | - | - | - |
| 1778072158 | 26.67° C | 19% | 808 hPa | - | - | - | - |
| 1778068857 | 26.67° C | 18% | 807.7 hPa | - | - | - | - |
| 1778065557 | 27.22° C | 18% | 807.2 hPa | - | - | - | - |
| 1778062257 | 27.78° C | 17% | 806.7 hPa | - | - | - | - |
| 1778058957 | 27.78° C | 17% | 806.7 hPa | - | - | - | - |
| 1778055657 | 28.33° C | 17% | 807 hPa | - | - | - | - |
| 1778052357 | 28.33° C | 17% | 807.1 hPa | - | - | - | - |
| 1778049056 | 28.89° C | 17% | 807.3 hPa | - | - | - | - |
| 1778045756 | 28.89° C | 16% | 807.6 hPa | - | - | - | - |
| 1778042456 | 28.89° C | 15% | 807.6 hPa | - | - | - | - |
| 1778039156 | 29.44° C | 14% | 806.9 hPa | - | - | - | - |
| 1778035855 | 30° C | 15% | 806.1 hPa | - | - | - | - |
| 1778032555 | 30° C | 17% | 805.3 hPa | - | - | - | - |
| 1778029254 | 30° C | 20% | 804.8 hPa | - | - | - | - |
| 1778025954 | 29.44° C | 18% | 804.4 hPa | - | - | - | - |
| 1778022654 | 29.44° C | 17% | 804.5 hPa | - | - | - | - |
| 1778019354 | 28.89° C | 15% | 804.9 hPa | - | - | - | - |
| 1778016054 | 28.33° C | 17% | 805.4 hPa | - | - | - | - |
| 1778012754 | 27.78° C | 18% | 806.1 hPa | - | - | - | - |
| 1778009453 | 26.67° C | 19% | 806.8 hPa | - | - | - | - |
* Rain since midnight (hover to see other rain measurements)
** Current wind speed in m/s (hover to see current wind gust speed)